Home > Weather > Norway > Tau > Past weeks

Flag for Norway Weather past 2 weeks in Tau, Norway

39 °F

Passing clouds.

Feels Like: 34 °F
Forecast: 38 / 46 °F
Wind: 8 mph from Southeast

Location: Stavanger / Sola

Current Time: Dec 1, 2015 at 6:20:49 PM

Latest Report: Dec 1, 2015 at 5:50 PM

Visibility: N/A

Pressure: 29.95 "Hg

Humidity: 87%

Dew point: 36 °F

Location of TauLocation

Historic Weather in Tau — Graph


Tau temperature yesterday

Maximum temperature yesterday: 45 °F (at 1:50 AM)
Minimum temperature yesterday: 41 °F (at 9:50 AM)
Average temperature yesterday: 43 °F

Past Weeks' High & Low Weather Summary

High52 °F (Nov 27, 11:50 AM)100% (Nov 19, 10:50 PM)30.04 "Hg (Nov 19, 10:50 PM)
Low23 °F (Nov 22, 6:50 AM)52% (Nov 22, 2:20 PM)28.91 "Hg (Nov 29, 4:50 PM)
Average41 °F81%29.48 "Hg
* Reported Nov 16 4:20 PM — Dec 1 4:50 PM, Tau, Weather by CustomWeather, © 2015

Note: Actual official high and low records may vary slightly from our data, if they occured in-between our weather recording intervals... More about our weather records


Tau weather history for previous 24 hours

Time TempWeatherWind HumidityBarometerVisibility
4:50 PM
Tue, Dec 1
37 °FPassing clouds.7 mph87%29.92 "HgN/A
4:20 PM39 °FPassing clouds.8 mph81%29.92 "HgN/A
3:50 PM39 °FPassing clouds.3 mph81%29.95 "HgN/A
3:20 PM41 °FScattered clouds.7 mph81%29.95 "HgN/A
2:50 PM43 °FScattered clouds.5 mph71%29.95 "HgN/A
2:20 PM45 °FScattered clouds.1 mph66%29.95 "HgN/A
1:50 PM43 °FScattered clouds.1 mph71%29.92 "HgN/A
1:20 PM43 °FBroken clouds.15 mph66%29.92 "HgN/A
12:50 PM45 °FBroken clouds.7 mph66%29.92 "HgN/A
12:20 PM45 °FBroken clouds.9 mph71%29.92 "HgN/A
11:50 AM43 °FScattered clouds.3 mph76%29.89 "HgN/A
11:20 AM43 °FRain showers. Scattered clouds.16 mph71%29.89 "HgN/A
10:50 AM43 °FScattered showers. Broken clouds.10 mph66%29.89 "HgN/A
10:20 AM43 °FScattered showers. Broken clouds.9 mph76%29.86 "HgN/A
9:50 AM43 °FScattered showers. Broken clouds.12 mph76%29.86 "HgN/A
8:50 AM39 °FScattered showers. Partly cloudy.9 mph81%29.83 "HgN/A
8:20 AM43 °FRain showers. Partly cloudy.20 mph71%29.80 "HgN/A
7:50 AM43 °FRain showers. Partly cloudy.28 mph76%29.77 "HgN/A
6:50 AM41 °FScattered showers. Partly cloudy.18 mph70%29.74 "HgN/A
5:50 AM45 °FScattered showers. Passing clouds.24 mph61%29.71 "HgN/A
4:50 AM43 °FScattered showers. Passing clouds.22 mph76%29.68 "HgN/A
3:50 AM45 °FScattered showers. Passing clouds.24 mph66%29.65 "HgN/A
2:50 AM45 °FScattered showers. Partly cloudy.29 mph66%29.62 "HgN/A
1:50 AM43 °FThundershowers. Passing clouds.26 mph66%29.59 "HgN/A
12:50 AM41 °FScattered showers. Passing clouds.33 mph76%29.56 "HgN/A
12:20 AM41 °FScattered showers. Passing clouds.20 mph76%29.53 "HgN/A
11:20 PM
Mon, Nov 30
43 °FThundershowers. Passing clouds.25 mph66%29.53 "HgN/A
10:50 PM43 °FSprinkles. Passing clouds.28 mph66%29.50 "HgN/A
10:20 PM43 °FPassing clouds.33 mph71%29.50 "HgN/A
9:50 PM45 °FPartly cloudy.24 mph66%29.47 "HgN/A
9:20 PM45 °FPartly cloudy.20 mph66%29.47 "HgN/A
8:50 PM43 °FPassing clouds.23 mph71%29.47 "HgN/A
8:20 PM41 °FPartly cloudy.12 mph76%29.45 "HgN/A
7:50 PM41 °FSprinkles. Partly cloudy.25 mph70%29.45 "HgN/A
7:20 PM43 °FPartly cloudy.17 mph66%29.45 "HgN/A
6:50 PM43 °FPartly cloudy.22 mph66%29.45 "HgN/A
6:20 PM43 °FPartly cloudy.20 mph66%29.42 "HgN/A
Weather by CustomWeather, © 2015

See weather overviewHow to use our weather pages